"Pseudo-MPEC" for CCPHVR2

Created 2025 Jan 22 23:31:09 UT using Find_Orb

Click here for an explanation of pseudo-MPECs

 
 Astrometry: 
     CCPHVR2  C2024 12 02.63685613 11 17.431+03 05 46.28   ~1AMl 21.14GVNEOCPF51
     CCPHVR2  C2024 12 02.64074413 11 17.405+03 05 44.80   ~1AMl 21.24GVNEOCPF51
     CCPHVR2  C2024 12 02.64461713 11 17.386+03 05 43.14   ~1AMl 21.15GVNEOCPF51
     CCPHVR2  C2024 12 02.64849113 11 17.376+03 05 41.85   ~1AMl 21.15GVNEOCPF51
     CCPHVR2*1C2025 01 06.48601812 55 10.888-00 08 33.47   ~16DV 20.40GVNEOCPG96
     CCPHVR2 1C2025 01 06.49080812 55 10.628-00 08 34.80   ~16DV 20.46GVNEOCPG96
     CCPHVR2 1C2025 01 06.49561912 55 10.333-00 08 36.38   ~16DV 20.69GVNEOCPG96
     CCPHVR2 1C2025 01 06.50039812 55 10.031-00 08 37.86   ~16DV 20.92GVNEOCPG96
     CCPHVR2 1C2025 01 06.51018712 55 09.466-00 08 40.38   ~16Dl 21.36GVNEOCPG96
     CCPHVR2 1C2025 01 06.51866012 55 08.944-00 08 42.18   ~16Dl 20.99GVNEOCPG96
     CCPHVR2 1C2025 01 06.52583512 55 08.486-00 08 44.63   ~16Dl 20.98GVNEOCPG96
     CCPHVR2 1C2025 01 06.53296512 55 08.098-00 08 46.82   ~16Dl 21.04GVNEOCPG96
     CCPHVR2 1C2025 01 06.60621012 55 03.871-00 09 06.49   ~170l 20.91GVNEOCPT12
     CCPHVR2 1C2025 01 06.60804012 55 03.761-00 09 06.98   ~170l 20.91GVNEOCPT12
     CCPHVR2 1C2025 01 06.60926012 55 03.689-00 09 07.27   ~170l 20.96GVNEOCPT12
     CCPHVR2 |C2025 01 08.31646012 53 20.050-00 16 53.80   ~188V 20.6 GVNEOCP807
     CCPHVR2 |C2025 01 08.32016012 53 19.820-00 16 54.90   ~188V 20.6 GVNEOCP807
     CCPHVR2 |C2025 01 08.32386012 53 19.590-00 16 56.00   ~188V 20.9 GVNEOCP807
     CCPHVR2  C2025 01 08.59284612 53 02.573-00 18 11.56   ~18GH 20.97wXNEOCPF52
     CCPHVR2  C2025 01 08.60509812 53 01.785-00 18 14.81   ~18GH 21.05wXNEOCPF52
     CCPHVR2 1C2025 01 08.60737012 53 01.629-00 18 15.41   ~18NH 20.98GVNEOCPT12
     CCPHVR2 1C2025 01 08.60803012 53 01.587-00 18 15.56   ~18NH 20.95GVNEOCPT12
     CCPHVR2 1C2025 01 08.60887012 53 01.542-00 18 15.80   ~18NH 21.03GVNEOCPT12
     CCPHVR2 1C2025 01 08.61091012 53 01.404-00 18 16.37   ~18NH 20.90GVNEOCPT12
     CCPHVR2  C2025 01 08.61739512 53 00.994-00 18 18.31   ~18GH 21.09wXNEOCPF52
     CCPHVR2  C2025 01 08.62967112 53 00.194-00 18 21.46   ~18GH 21.02wXNEOCPF52
     CCPHVR2 |C2025 01 09.32339012 52 15.580-00 21 25.40   ~1992 20.5 GVNEOCP807
     CCPHVR2 |C2025 01 09.33170012 52 15.040-00 21 27.80   ~1992 20.6 GVNEOCP807
     CCPHVR2 |C2025 01 09.33908012 52 14.540-00 21 29.60   ~1992 20.7 GVNEOCP807
     CCPHVR2 KC2025 01 09.37513812 52 12.19 -00 21 43.1    ~199l 20.9 GVNEOCPH21
     CCPHVR2 KC2025 01 09.37793512 52 12.01 -00 21 43.5    ~199l 20.8 GVNEOCPH21
     CCPHVR2 KC2025 01 09.38073112 52 11.85 -00 21 44.3    ~199l 21.7 GVNEOCPH21
     CCPHVR2 KC2025 01 09.38362112 52 11.67 -00 21 44.9    ~199l 21.6 GVNEOCPH21
     CCPHVR2 KB2025 01 13.20324712 47 43.024-00 38 17.45   ~1D7V 21.1 VZNEOCPY89
     CCPHVR2 KB2025 01 13.20887712 47 42.663-00 38 18.51   ~1D7V 20.7 VZNEOCPY89
     CCPHVR2 KB2025 01 13.21533012 47 42.233-00 38 20.77   ~1D7V 20.5 VZNEOCPY89
     CCPHVR2 7C2025 01 16.19985212 43 45.031-00 50 33.73   ~1G8l 19.9 GVNEOCPZ84
     CCPHVR2 7C2025 01 16.20552112 43 44.543-00 50 35.18   ~1G8l 20.0 GVNEOCPZ84
     CCPHVR2 7C2025 01 16.21120212 43 44.072-00 50 36.53   ~1G8l 20.1 GVNEOCPZ84
     CCPHVR2 1C2025 01 21.55401612 35 34.283-01 10 46.23   ~1LFH       LNEOCP658
     CCPHVR2 1C2025 01 21.55736112 35 33.938-01 10 47.15   ~1LFH       LNEOCP658
     CCPHVR2 1C2025 01 21.56070612 35 33.591-01 10 47.91   ~1LFH       LNEOCP658
     CCPHVR2 1C2025 01 21.56406212 35 33.251-01 10 48.68   ~1LFH       LNEOCP658
     CCPHVR2 1C2025 01 21.56740712 35 32.909-01 10 49.30   ~1LFH       LNEOCP658

Station data:
(658) Dominion Astrophysical Observatory  (N48.519984 W123.417000)
   Canada/BritColumbia.  Observer D. D. Balam. Measurers D. D. Balam, D. W.
   E. Green, C. E. Spratt. 1.82-m reflector + CCD.
(807) Cerro Tololo Observatory, La Serena  (S30.169133 W70.805900)  Chile.
   Observer R. Holmes. 0.61-m f/6.5 astrograph + CCD.
(F51) Pan-STARRS 1, Haleakala  (N20.707234 W156.255910)  US/Hawaii.
   Observers J. Bulger, T. Lowe, A. Schultz, M. Willman. Measurers K.
   Chambers, S. Chastel, T. de Boer, L. Denneau, J. Fairlamb, H. Flewelling,
   M. Huber, C.-C. Lin, E. Magnier, Y. Ramanjooloo, R. Wainscoat, R. Weryk.
   1.8-m Ritchey-Chrétien + CCD.
(F52) Pan-STARRS 2, Haleakala  (N20.707382 W156.255910)  US/Hawaii.
   Observers J. Bulger, T. Dukes, T. Lowe, A. Schultz, M. Willman. Measurers
   K. Chambers, S. Chastel, T. de Boer, L. Denneau, J. Fairlamb, H.
   Flewelling, M. Huber, C.-C. Lin, E. Magnier, Y. Ramanjooloo, R. Wainscoat,
   R. Weryk. 1.8-m Ritchey-Chrétien + CCD.
(G96) Mt. Lemmon Survey  (N32.442729 W110.788720)  US/Arizona.  Observer E.
   J. Christensen.  + 10K CCD.
(H21) Astronomical Research Observatory, Westfield  (N39.483054 W87.968270)
   US/Illinois.  Observer R. Holmes. Measurers S. Foglia, L. Buzzi, T.
   Linder, R. Holmes. 0.40-m f/5.32 astrograph + CCD.
(T12) Mauna Kea-UH/Tholen NEO Follow-Up (2.24-m)  (N19.822991 W155.469434)
   US/Hawaii.  Observer R. Weryk. 2.24-m f/10.1 University of Hawaii
   reflector.
(Y89) Proxima Centauri Observatory, Valdin  (N42.222443 W6.988110)  Spain.
(Z84) Calar Alto-Schmidt  (N37.224006 W2.548160)  Spain.  Observer F. Ocaña.
   Measurers E. Schwab, D. Koschny, M. Micheli. 0.8-m f/3 Schmidt + CCD.

Orbital elements:  CCPHVR2
   Perihelion 2025 Mar 28.05734 +/- 0.0266 TT =  1:22:34 (JD 2460762.55734)
Epoch 2025 Jan 21.0 TT = JDT 2460696.5                           AutoNEOCP
M 359.99960695 +/- 0.00022          (J2000 ecliptic)
n   0.00000595 +/- 3.39e-6          Peri.  195.55165 +/- 0.009
a3016.18118 +/- 1165                Node   348.84321 +/- 0.00041
e   0.9990440 +/- 0.000364          Incl.  133.64929 +/- 0.0013
P 165647  H   15.51    G   0.15     U  4.3
q 2.88343983 +/- 6.24e-5    Q 6029.47893 +/- 2296
From 44 observations 2024 Dec. 2-2025 Jan. 21; mean residual 0".25
Residuals in arcseconds: 
241202 F51  .05-  .03+    250108 807  .01+  .05+    250109 H21  .08+  .14+    
241202 F51  .09-  .05+    250108 807  .10+  .05-    250109 H21  .46+  .09+    
241202 F51  .02-  .13-    250108 807  .18+  .14-    250109 H21  .64+  .27+    
241202 F51  .18+  .07+    250108 F52  .01-  .04-    250113 Y89  1.1-  .48+    
250106 G96  .16-  .15+    250108 F52  .04+  .02+    250113 Y89  .11-  .84+    
250106 G96  .21+  .16+    250108 T12  .06-  .01-    250113 Y89  .83+  .20+    
250106 G96  .08+  .08-    250108 T12  .05-  .02+    250116 Z84  .32+  .01+    
250106 G96  .19-  .23-    250108 T12  .09+  .01+    250116 Z84  .21+  .08-    
250106 G96  .08+  .03-    250108 T12  .01-  .01-    250116 Z84  .38+  .07-    
250106 G96  .17-  .53+    250108 F52  .11+  .15-    250121 658  .08+  .12+    
250106 G96  .63-  .08+    250108 F52  .03+  .02+    250121 658  .03-  .09-    
250106 G96  .07-  .12-    250109 807  .09-  .03-    250121 658  .18-  .13-    
250106 T12  .01-  .04-    250109 807  .07+  .20-    250121 658  .20-  .19-    
250106 T12  .02-  .02-    250109 807  .10-  .03-    250121 658  .26-  .10-    
250106 T12  .00   .03+    250109 H21  .01+  .20-    

Ephemerides (geocentric):
Date (UTC) HH   RA             Dec           delta  r     elong  mag " sig PA
---- --------  ------------   ------------  ------ ------ -----  --- --------
2025 01 23 00  12 33 06.515   -01 15 46.29  2.4046 2.9552 114.8 20.7 .192 172
2025 01 23 01  12 33 02.156   -01 15 54.85  2.4037 2.9551 114.8 20.7 .192 172
2025 01 23 02  12 32 57.792   -01 16 03.40  2.4029 2.9550 114.9 20.7 .193 172
2025 01 23 03  12 32 53.422   -01 16 11.94  2.4020 2.9549 114.9 20.7 .194 172
2025 01 23 04  12 32 49.047   -01 16 20.47  2.4011 2.9549 115.0 20.7 .195 172
2025 01 23 05  12 32 44.666   -01 16 28.99  2.4002 2.9548 115.1 20.7 .195 172
2025 01 23 06  12 32 40.279   -01 16 37.50  2.3994 2.9547 115.1 20.7 .196 172
2025 01 23 07  12 32 35.887   -01 16 46.00  2.3985 2.9546 115.2 20.7 .197 172
2025 01 23 08  12 32 31.489   -01 16 54.49  2.3976 2.9545 115.2 20.7 .198 173
2025 01 23 09  12 32 27.085   -01 17 02.97  2.3967 2.9544 115.3 20.7 .198 173
2025 01 23 10  12 32 22.675   -01 17 11.45  2.3959 2.9543 115.3 20.7 .199 173
2025 01 23 11  12 32 18.260   -01 17 19.91  2.3950 2.9542 115.4 20.7 .200 173
2025 01 23 12  12 32 13.840   -01 17 28.36  2.3941 2.9541 115.5 20.7 .201 173
2025 01 23 13  12 32 09.413   -01 17 36.81  2.3933 2.9540 115.5 20.7 .201 173
2025 01 23 14  12 32 04.981   -01 17 45.24  2.3924 2.9539 115.6 20.7 .202 173
2025 01 23 15  12 32 00.543   -01 17 53.67  2.3915 2.9539 115.6 20.7 .203 173
2025 01 23 16  12 31 56.100   -01 18 02.08  2.3907 2.9538 115.7 20.7 .204 173
2025 01 23 17  12 31 51.650   -01 18 10.49  2.3898 2.9537 115.8 20.7 .204 173
2025 01 23 18  12 31 47.195   -01 18 18.89  2.3889 2.9536 115.8 20.7 .205 173
2025 01 23 19  12 31 42.735   -01 18 27.28  2.3880 2.9535 115.9 20.7 .206 173
2025 01 23 20  12 31 38.268   -01 18 35.65  2.3872 2.9534 115.9 20.7 .207 173
2025 01 23 21  12 31 33.796   -01 18 44.02  2.3863 2.9533 116.0 20.7 .207 173
2025 01 23 22  12 31 29.319   -01 18 52.38  2.3854 2.9532 116.0 20.7 .208 174
2025 01 23 23  12 31 24.835   -01 19 00.73  2.3846 2.9531 116.1 20.7 .209 174
2025 01 24 00  12 31 20.346   -01 19 09.07  2.3837 2.9530 116.2 20.7 .210 174
2025 01 24 01  12 31 15.851   -01 19 17.40  2.3829 2.9529 116.2 20.7 .211 174
2025 01 24 02  12 31 11.350   -01 19 25.72  2.3820 2.9529 116.3 20.7 .211 174
2025 01 24 03  12 31 06.844   -01 19 34.03  2.3811 2.9528 116.3 20.7 .212 174
2025 01 24 04  12 31 02.332   -01 19 42.33  2.3803 2.9527 116.4 20.7 .213 174
2025 01 24 05  12 30 57.814   -01 19 50.63  2.3794 2.9526 116.5 20.7 .214 174
2025 01 24 06  12 30 53.290   -01 19 58.91  2.3785 2.9525 116.5 20.7 .214 174
2025 01 24 07  12 30 48.761   -01 20 07.18  2.3777 2.9524 116.6 20.7 .215 174
2025 01 24 08  12 30 44.226   -01 20 15.44  2.3768 2.9523 116.6 20.7 .216 174
2025 01 24 09  12 30 39.685   -01 20 23.70  2.3760 2.9522 116.7 20.6 .217 174
2025 01 24 10  12 30 35.138   -01 20 31.94  2.3751 2.9521 116.8 20.6 .217 174
2025 01 24 11  12 30 30.586   -01 20 40.17  2.3742 2.9520 116.8 20.6 .218 174
2025 01 24 12  12 30 26.028   -01 20 48.40  2.3734 2.9520 116.9 20.6 .219 175
2025 01 24 13  12 30 21.464   -01 20 56.61  2.3725 2.9519 116.9 20.6 .220 175
2025 01 24 14  12 30 16.894   -01 21 04.82  2.3717 2.9518 117.0 20.6 .221 175
2025 01 24 15  12 30 12.319   -01 21 13.01  2.3708 2.9517 117.0 20.6 .221 175
2025 01 24 16  12 30 07.738   -01 21 21.20  2.3699 2.9516 117.1 20.6 .222 175
2025 01 24 17  12 30 03.151   -01 21 29.37  2.3691 2.9515 117.2 20.6 .223 175
2025 01 24 18  12 29 58.558   -01 21 37.54  2.3682 2.9514 117.2 20.6 .224 175
2025 01 24 19  12 29 53.959   -01 21 45.69  2.3674 2.9513 117.3 20.6 .225 175
2025 01 24 20  12 29 49.355   -01 21 53.84  2.3665 2.9512 117.3 20.6 .225 175
2025 01 24 21  12 29 44.745   -01 22 01.98  2.3656 2.9511 117.4 20.6 .226 175
2025 01 24 22  12 29 40.129   -01 22 10.10  2.3648 2.9511 117.5 20.6 .227 175
2025 01 24 23  12 29 35.507   -01 22 18.22  2.3639 2.9510 117.5 20.6 .228 175